Tracking 33407 objects as of 5-Mar-2026
HD Live streaming from Space Station
objects crossing your sky now

STARLINK-1417

Track STARLINK-1417 now!
10-day predictions
STARLINK-1417 is classified as:


NORAD ID: 45693
Int'l Code: 2020-035AN
Perigee: 535.0 km
Apogee: 538.3 km
Inclination: 53.1 °
Period: 95.2 minutes
Semi major axis: 6907 km
RCS: Unknown
Launch date: June 4, 2020
Source: United States (US)
Launch site: AIR FORCE EASTERN TEST RANGE (AFETR)
Your satellite tracking list
Your tracking list is empty




NASA's NSSDC Master Catalog

Two Line Element Set (TLE):
1 45693U 20035AN  26064.23642930  .00030134  00000-0  17349-2 0  9991
2 45693  53.0514  74.4914 0002376 216.6126 143.4703 15.12204075318223
Source of the keplerian elements: AFSPC